Flag for Argentina Weather past 2 weeks in Tucumán, Tucumán, Argentina

Now
70 °F

Clear.


Feels Like: 70 °F
Forecast: N/A
Wind: 5 mph from Southeast

Location: Tucuman Aerodrome

Current Time: Sep 17, 2014 at 8:52:49 PM

Latest Report: Sep 17, 2014 at 8:00 PM


Visibility: 3 mi

Pressure: 29.95 "Hg

Humidity: 50%

Dew point: 50 °F

Location of TucumánLocation

Historic Weather in Tucumán — Graph

°F

Tucumán temperature yesterday

Maximum temperature yesterday: 84 °F (at 4:00 PM)
Minimum temperature yesterday: 50 °F (at 7:00 AM)
Average temperature yesterday: 68 °F

Past Weeks' High & Low Weather Summary

 TemperatureHumidityPressure
High95 °F (Sep 9, 3:00 PM)100% (Sep 4, 1:00 AM)30.30 "Hg (Sep 4, 1:00 AM)
Low46 °F (Sep 12, 4:00 AM)26% (Sep 10, 6:00 PM)29.47 "Hg (Sep 9, 4:00 PM)
Average66 °F64%29.95 "Hg
* Reported Sep 2 7:00 PM — Sep 17 7:00 PM, Tucumán, Weather by CustomWeather, © 2014

Note: Actual official high and low records may vary slightly from our data, if they occured in-between our weather recording intervals... More about our weather records

Advertising

Tucumán weather history for previous 24 hours

 ConditionsComfort  
Time TempWeatherWind HumidityBarometerVisibility
7:00 PM
Sep 17
70 °FClear.5 mph53%29.92 "Hg3 mi
6:00 PM73 °FClear.9 mph47%29.89 "Hg3 mi
5:00 PM75 °FClear.6 mph44%29.89 "Hg3 mi
4:00 PM75 °FClear.6 mph41%29.89 "Hg3 mi
3:00 PM73 °FClear.7 mph44%29.92 "Hg3 mi
2:00 PM73 °FClear.9 mph41%29.92 "Hg4 mi
1:00 PM73 °FClear.9 mph38%29.95 "Hg4 mi
12:00 PM72 °FClear.9 mph41%29.98 "Hg4 mi
11:00 AM70 °FClear.9 mph46%30.01 "Hg4 mi
10:00 AM63 °FPartly sunny.No wind59%30.01 "Hg4 mi
9:00 AM59 °FPartly sunny.7 mph68%29.98 "Hg4 mi
8:00 AM57 °FPartly sunny.9 mph72%29.98 "Hg4 mi
7:00 AM57 °FClear.6 mph72%29.95 "Hg4 mi
6:00 AM57 °FClear.6 mph72%29.92 "Hg4 mi
5:00 AM57 °FClear.8 mph72%29.89 "Hg3 mi
4:00 AM59 °FClear.5 mph68%29.89 "Hg4 mi
3:00 AM61 °FClear.5 mph63%29.89 "Hg4 mi
2:00 AM61 °FClear.7 mph63%29.92 "Hg4 mi
1:00 AM61 °FClear.5 mph68%29.92 "Hg4 mi
12:00 AM64 °FClear.6 mph64%29.92 "Hg4 mi
11:00 PM
Sep 16
64 °FClear.5 mph60%29.95 "Hg4 mi
10:00 PM68 °FClear.No wind53%29.92 "Hg4 mi
9:00 PM68 °FClear.7 mph53%29.89 "Hg4 mi
8:00 PM72 °FClear.7 mph47%29.86 "Hg4 mi
Weather by CustomWeather, © 2014

See weather overviewHow to use our weather pages